Stations météo

Publicité
Edinburgh/Royal Botanic Garden , Grande-Bretagne (99180): Température de l'air & dewpoint: 14.01.2020 09:00:00 - 20.01.2020 09:00:00 (GMT)Edinburgh/Royal Botanic Garden , Grande-Bretagne (99180): Température de l'air -20cm & Température de l'air -100cm: 14.01.2020 09:00:00 - 20.01.2020 09:00:00 (GMT)Edinburgh/Royal Botanic Garden , Grande-Bretagne (99180): Quantités de précipitations: 14.01.2020 09:00:00 - 20.01.2020 09:00:00 (GMT)
Date & Time tt [°C] td [°C] tt -20cm [°C] tt -100cm [°C] rr [mm]
20.01.2020 09:00:00 - - - - -
20.01.2020 08:00:00 7,0 3,6 - - 0,0
20.01.2020 07:00:00 6,9 3,5 - - 0,0
20.01.2020 06:00:00 6,9 3,4 - - 0,0
20.01.2020 05:00:00 6,7 3,4 - - 0,0
20.01.2020 04:00:00 6,3 3,2 - - 0,0
20.01.2020 03:00:00 5,8 2,7 - - 0,0
20.01.2020 02:00:00 5,7 2,5 - - 0,0
20.01.2020 01:00:00 5,6 1,8 - - 0,0
20.01.2020 00:00:00 5,3 1,0 - - 0,0
19.01.2020 23:00:00 5,6 1,0 - - 0,0
19.01.2020 22:00:00 4,8 -0,4 - - 0,0
19.01.2020 21:00:00 5,4 -1,6 - - 0,0
19.01.2020 20:00:00 4,8 -1,6 - - 0,0
19.01.2020 19:00:00 5,6 -1,6 - - 0,0
19.01.2020 18:00:00 5,2 -0,8 - - 0,0
19.01.2020 17:00:00 5,0 0,3 - - 0,0
19.01.2020 16:00:00 6,0 0,7 - - 0,0
19.01.2020 15:00:00 6,2 0,4 - - 0,0
19.01.2020 14:00:00 6,5 1,2 - - 0,0
19.01.2020 13:00:00 6,2 2,8 - - 0,0
19.01.2020 12:00:00 5,7 3,3 - - 0,0
19.01.2020 11:00:00 4,7 3,8 - - 0,2
19.01.2020 10:00:00 2,5 2,3 - - 0,0
19.01.2020 09:00:00 2,0 1,9 3,2 6,0 0,0
19.01.2020 08:00:00 -0,2 -0,4 - - 0,0
19.01.2020 07:00:00 -0,5 -0,7 - - 0,0
19.01.2020 06:00:00 -1,5 -2,0 - - 0,0
19.01.2020 05:00:00 -1,0 -1,5 - - 0,0
19.01.2020 04:00:00 -0,7 -1,3 - - 0,0
19.01.2020 03:00:00 -0,1 -1,1 - - 0,0
19.01.2020 02:00:00 0,9 -0,8 - - 0,0
19.01.2020 01:00:00 2,0 -0,1 - - 0,0
19.01.2020 00:00:00 1,2 -0,4 - - 0,0
18.01.2020 23:00:00 1,2 -0,4 - - 0,0
18.01.2020 22:00:00 2,5 0,1 - - 0,0
18.01.2020 21:00:00 1,7 -0,2 - - 0,0
18.01.2020 20:00:00 2,5 0,0 - - 0,0
18.01.2020 19:00:00 3,2 0,4 - - 0,0
18.01.2020 18:00:00 4,1 0,7 - - 0,0
18.01.2020 17:00:00 4,4 0,5 - - 0,0
18.01.2020 16:00:00 4,6 0,5 - - 0,0
18.01.2020 15:00:00 5,1 0,7 - - 0,0
18.01.2020 14:00:00 6,3 0,8 - - 0,0
18.01.2020 13:00:00 5,5 0,9 - - 0,0
18.01.2020 12:00:00 4,8 0,9 - - 0,0
18.01.2020 11:00:00 3,8 0,8 - - 0,0
18.01.2020 10:00:00 3,1 0,3 - - 0,0
18.01.2020 09:00:00 2,8 0,6 3,7 6,0 0,0
18.01.2020 08:00:00 2,6 0,3 - - 0,0
18.01.2020 07:00:00 2,1 -0,4 - - 0,0
18.01.2020 06:00:00 2,3 -0,2 - - 0,0
18.01.2020 05:00:00 2,6 -0,5 - - 0,0
18.01.2020 04:00:00 2,8 -0,6 - - 0,0
18.01.2020 03:00:00 2,4 -0,3 - - 0,0
18.01.2020 02:00:00 3,4 -0,2 - - 0,0
18.01.2020 01:00:00 3,0 -0,3 - - 0,0
18.01.2020 00:00:00 3,0 0,1 - - 0,0
17.01.2020 23:00:00 3,1 0,3 - - 0,0
17.01.2020 22:00:00 3,4 0,8 - - 0,0
17.01.2020 21:00:00 3,9 0,9 - - 0,0
17.01.2020 20:00:00 4,3 1,6 - - 0,0
17.01.2020 19:00:00 4,7 1,8 - - 0,0
17.01.2020 18:00:00 4,4 2,1 - - 0,0
17.01.2020 17:00:00 4,4 1,7 - - 0,0
17.01.2020 16:00:00 5,5 2,5 - - 0,0
17.01.2020 15:00:00 6,1 2,3 - - 0,0
17.01.2020 14:00:00 6,6 1,9 - - 0,0
17.01.2020 13:00:00 5,7 1,7 - - 0,0
17.01.2020 12:00:00 5,0 1,4 - - 0,0
17.01.2020 11:00:00 4,1 1,1 - - 0,0
17.01.2020 10:00:00 4,0 1,1 - - 0,0
17.01.2020 09:00:00 3,6 0,9 4,2 6,2 0,0
17.01.2020 08:00:00 2,1 0,1 - - 0,0
17.01.2020 07:00:00 3,3 1,0 - - 0,0
17.01.2020 06:00:00 3,3 1,2 - - 0,0
17.01.2020 05:00:00 3,0 0,6 - - 0,0
17.01.2020 04:00:00 4,4 1,4 - - 0,0
17.01.2020 03:00:00 5,5 1,8 - - 0,0
17.01.2020 02:00:00 6,0 2,0 - - 0,0
17.01.2020 01:00:00 6,4 2,2 - - 0,0
17.01.2020 00:00:00 6,4 2,2 - - 0,0
16.01.2020 23:00:00 6,8 2,7 - - 0,0
16.01.2020 22:00:00 7,1 3,3 - - 0,0
16.01.2020 21:00:00 7,8 4,6 - - 0,0
16.01.2020 20:00:00 9,8 7,1 - - 0,2
16.01.2020 19:00:00 10,3 8,2 - - 0,0
16.01.2020 18:00:00 9,4 7,5 - - 1,6
16.01.2020 17:00:00 8,6 7,3 - - 3,0
16.01.2020 16:00:00 7,9 5,6 - - 0,4
16.01.2020 15:00:00 8,2 4,5 - - 0,0
16.01.2020 14:00:00 8,6 3,5 - - 0,0
16.01.2020 13:00:00 9,2 3,6 - - 0,0
16.01.2020 12:00:00 8,6 4,3 - - 0,0
16.01.2020 11:00:00 9,0 3,9 - - 0,0
16.01.2020 10:00:00 8,8 4,4 - - 0,0
16.01.2020 09:00:00 8,7 4,0 4,0 6,2 0,0
16.01.2020 08:00:00 8,5 4,2 - - 0,0
16.01.2020 07:00:00 5,8 3,9 - - 0,0
16.01.2020 06:00:00 5,1 2,2 - - 0,0
16.01.2020 05:00:00 6,4 2,5 - - 0,0
16.01.2020 04:00:00 6,3 2,5 - - 0,0
16.01.2020 03:00:00 5,8 1,8 - - 0,0
16.01.2020 02:00:00 5,0 1,4 - - 0,0
16.01.2020 01:00:00 4,9 1,3 - - 0,0
16.01.2020 00:00:00 5,3 1,7 - - 0,0
15.01.2020 23:00:00 5,7 1,6 - - 0,0
15.01.2020 22:00:00 5,8 1,6 - - 0,0
15.01.2020 21:00:00 6,0 1,6 - - 0,0
15.01.2020 20:00:00 6,0 1,3 - - 0,0
15.01.2020 19:00:00 6,4 1,3 - - 0,0
15.01.2020 18:00:00 6,7 1,4 - - 0,0
15.01.2020 17:00:00 6,8 1,4 - - 0,0
15.01.2020 16:00:00 6,9 1,5 - - 0,0
15.01.2020 15:00:00 7,3 1,4 - - 0,0
15.01.2020 14:00:00 7,6 1,3 - - 0,0
15.01.2020 13:00:00 7,5 1,1 - - 0,0
15.01.2020 12:00:00 7,1 1,3 - - 0,0
15.01.2020 11:00:00 6,1 1,0 - - 0,0
15.01.2020 10:00:00 5,7 0,5 - - 0,0
15.01.2020 09:00:00 5,8 0,5 4,2 6,2 0,0
15.01.2020 08:00:00 5,2 0,2 - - 0,0
15.01.2020 07:00:00 5,0 0,4 - - 0,0
15.01.2020 06:00:00 4,8 0,1 - - 0,0
15.01.2020 05:00:00 4,4 -0,4 - - 0,0
15.01.2020 04:00:00 4,2 -0,3 - - 0,0
15.01.2020 03:00:00 4,5 -0,2 - - 0,0
15.01.2020 02:00:00 4,2 -0,3 - - 0,0
15.01.2020 01:00:00 4,2 -0,5 - - 0,0
15.01.2020 00:00:00 4,1 -0,6 - - 0,0
14.01.2020 23:00:00 4,0 -0,2 - - 0,0
14.01.2020 22:00:00 3,8 0,3 - - 0,0
14.01.2020 21:00:00 4,0 0,9 - - 0,0
14.01.2020 20:00:00 3,8 1,3 - - 0,0
14.01.2020 19:00:00 4,1 2,1 - - 0,2
14.01.2020 18:00:00 3,9 2,2 - - 0,0
14.01.2020 17:00:00 3,9 2,7 - - 0,6
14.01.2020 16:00:00 4,5 2,6 - - 0,0
14.01.2020 15:00:00 4,9 2,1 - - 0,2
14.01.2020 14:00:00 5,3 1,8 - - 0,0
14.01.2020 13:00:00 6,0 1,6 - - 0,0
14.01.2020 12:00:00 6,2 1,2 - - 0,0
14.01.2020 11:00:00 5,6 0,6 - - 0,0
14.01.2020 10:00:00 4,9 0,2 - - 0,0
14.01.2020 09:00:00 4,7 -0,3 4,5 6,4 0,0

tt = Température de l'air
td = dewpoint
tt -20cm = Température de l'air -20cm
tt -100cm = Température de l'air -100cm
rr = Quantités de précipitations

stations d'obs. à proximité